Home > Weather > Rankin Inlet > Past weeks

Flag for Canada Past Weather in Rankin Inlet, Nunavut, Canada — Yesterday and Last 2 Weeks

Now
55 °F

Broken clouds.


Feels Like: 53 °F
Forecast: 47 / 58 °F
Wind: 9 mph from Southwest

Location: Rankin Inlet

Current Time: Jul 30, 2016 at 10:09:44 AM

Latest Report: Jul 30, 2016 at 9:00 AM


Visibility: 15 mi

Pressure: 29.98 "Hg

Humidity: 77%

Dew Point: 48 °F

Location of Rankin InletLocation

Past Weather in Rankin Inlet — Graph

°F

Rankin Inlet Temperature Yesterday

Maximum temperature yesterday: 64 °F (at 2:00 PM)
Minimum temperature yesterday: 50 °F (at 1:00 AM)
Average temperature yesterday: 57 °F

High & Low Weather Summary for the Past Weeks

 TemperatureHumidityPressure
High64 °F (Jul 15, 12:00 PM)100% (Jul 19, 12:00 AM)30.13 "Hg (Jul 19, 12:00 AM)
Low43 °F (Jul 25, 12:00 AM)33% (Jul 22, 5:00 PM)29.26 "Hg (Jul 16, 11:00 AM)
Average52 °F78%29.74 "Hg
* Reported Jul 15 9:00 AM — Jul 30 9:00 AM, Rankin Inlet, Weather by CustomWeather, © 2016

Note: Actual official high and low records may vary slightly from our data, if they occured in-between our weather recording intervals... More about our weather records

Advertising

Rankin Inlet Weather History for the Previous 24 Hours

Scroll right to see more
 ConditionsComfort  
Time TempWeatherWind HumidityBarometerVisibility
9:00 AM
Sat, Jul 30
55 °FBroken clouds.9 mph77%29.98 "Hg15 mi
8:00 AM54 °FBroken clouds.10 mph82%29.98 "Hg15 mi
7:00 AM52 °FBroken clouds.8 mph82%29.97 "Hg15 mi
6:00 AM52 °FScattered clouds.6 mph82%29.97 "Hg15 mi
5:00 AM52 °FPassing clouds.6 mph82%29.96 "Hg15 mi
4:00 AM52 °FPassing clouds.7 mph77%29.96 "Hg15 mi
3:00 AM52 °FPassing clouds.8 mph82%29.96 "Hg15 mi
2:00 AM52 °FPassing clouds.9 mph88%29.96 "Hg15 mi
1:00 AM54 °FClear.9 mph82%29.96 "Hg15 mi
12:00 AM54 °FPassing clouds.13 mph77%29.96 "Hg15 mi
11:00 PM
Fri, Jul 29
55 °FPassing clouds.12 mph72%29.95 "Hg15 mi
10:00 PM57 °FScattered clouds.12 mph67%29.95 "Hg15 mi
9:00 PM57 °FScattered clouds.9 mph67%29.96 "Hg15 mi
8:00 PM59 °FPartly sunny.12 mph63%29.96 "Hg15 mi
7:00 PM61 °FPartly sunny.14 mph59%29.96 "Hg15 mi
6:00 PM61 °FPartly sunny.17 mph59%29.96 "Hg15 mi
5:00 PM61 °FPartly sunny.12 mph59%29.97 "Hg15 mi
4:00 PM63 °FPartly sunny.12 mph59%29.97 "Hg15 mi
3:00 PM64 °FPartly sunny.9 mph49%29.97 "Hg15 mi
2:00 PM64 °FPartly sunny.12 mph46%29.98 "Hg15 mi
1:00 PM63 °FScattered clouds.9 mph56%29.98 "Hg15 mi
12:00 PM63 °FScattered clouds.9 mph56%29.99 "Hg15 mi
11:00 AM61 °FScattered clouds.6 mph63%30.00 "Hg15 mi
10:00 AM61 °FPassing clouds.5 mph63%30.00 "Hg15 mi
Weather by CustomWeather, © 2016

See weather overviewHow to use our weather pages